Location: Bagnara
(41.0500°N, 14.7833°E)
Time: 00:41:08
(UTC+00:00)

Meteor 2-3 Rocket - Pass Details

Date: 28 October 2021
Orbit: 842 x 885 km, 81.2° (Epoch: 28 November)

Event Time Altitude Azimuth Distance (km) Brightness Sun altitude
Rises 18:23:53 0° 358° (N) 3,423 7.0 -27.4°
Reaches altitude 10° 18:26:30 10° 7° (N) 2,489 6.1 -27.9°
Enters shadow 18:27:16 14° 11° (N) 2,232 5.8 -28.0°
